Location: Fort Collins
(40.5850°N, 105.0840°W)
Time: 06:07:06
(UTC-06:00)

Daily predictions for brighter satellites

Satellite Brightness Start Highest point End
(mag) Time Altitude Azimuth Time Altitude Azimuth Time Altitude Azimuth
Meteor 2-5 Rocket 4.1 19:07:41 10° NNW 19:13:18 73° W 19:18:49 10° S
Cosmos 2346 Rocket 4.4 19:11:26 10° N 19:17:33 84° E 19:23:35 10° S
SJ-6B 3.1 19:14:08 10° SSE 19:17:58 50° ENE 19:21:55 10° N
Cosmos 1371 Rocket 4.4 19:15:08 10° NNW 19:20:25 73° WSW 19:25:45 10° S
COSMO-SKYMED 1 2.9 19:17:32 10° N 19:21:53 73° WNW 19:26:11 10° SSW
IDEFIX/ARIANE 42P 4.3 19:23:01 10° SSW 19:27:50 37° W 19:32:41 10° NNW
HJ-1C 4.2 19:24:57 10° SE 19:27:56 30° ENE 19:30:57 10° N
Cosmos 1758 4.1 19:25:13 10° SSE 19:28:49 31° E 19:32:27 10° NNE
Cosmos 2333 Rocket 3.9 19:24:05 10° SW 19:29:23 37° WNW 19:34:43 10° N
Cosmos 192 4.4 19:25:04 10° S 19:29:56 62° ESE 19:34:51 10° NNE
Spot 1 4.5 19:25:56 10° SE 19:30:29 48° ENE 19:34:50 10° N
NOAA 12 4.1 19:27:15 10° SSE 19:32:28 71° ENE 19:37:44 10° N
ISS -1.2 19:31:28 10° SSE 19:32:46 12° SE 19:33:16 12° ESE
Aureole 2 Rocket 3.1 19:29:06 10° SSW 19:33:30 80° WNW 19:37:48 10° NNE
Timation 1 Rocket 4.3 19:28:51 10° NNW 19:34:50 73° ENE 19:40:47 10° SSE
Cosmos 1674 4.4 19:33:20 10° NE 19:35:38 15° ENE 19:36:37 14° E
SAR-Lupe-1 4.0 19:32:37 10° SSE 19:36:10 87° WSW 19:39:45 10° NNW
Cosmos 1484 Rocket 3.9 19:32:45 10° S 19:36:26 47° W 19:40:13 10° NNW
OAO 3 Rocket 3.9 19:32:20 10° WSW 19:36:49 42° S 19:40:37 14° ESE
In-Cosmos 22 4.4 19:32:36 10° N 19:38:18 54° ENE 19:43:54 10° SSE
ASTRO E2 4.4 19:37:06 10° SW 19:40:15 22° S 19:43:08 11° SE
Cosmos 1766 Rocket 3.6 19:37:16 10° N 19:41:34 53° E 19:45:48 10° SSE
USA 215 3.3 19:37:23 10° NE 19:43:53 64° SE 19:50:20 10° SW
Meteor 1-29 3.4 19:43:23 10° NNE 19:46:43 39° E 19:50:00 10° S
ALOS 2.9 19:43:01 10° SE 19:47:12 34° ENE 19:51:24 10° N
Helios 1B rocket 2.5 19:44:39 10° NNE 19:48:42 55° E 19:52:44 10° S
Cosmos 1076 Rocket 3.5 19:48:09 10° N 19:52:30 88° E 19:56:51 10° S
Cosmos 2237 Rocket 4.3 19:47:42 10° WSW 19:52:35 29° NW 19:57:30 10° N
CZ-4C R/B 4.1 19:48:51 10° WSW 19:53:36 30° NW 19:58:54 10° NNE
Cosmos 2034 Rocket 3.9 19:49:11 10° S 19:55:23 71° E 20:01:42 10° NNE
ATLAS 5 CENTAUR R/B 1.8 19:51:09 10° SSW 19:55:54 87° SE 20:01:04 10° NE
Meteor 1-21 Rocket 4.2 19:50:46 10° N 19:56:15 56° ENE 20:01:39 10° SSE
Cosmos 1766 4.3 19:53:01 10° SSW 19:56:52 50° W 20:00:46 10° N
Cosmos 1464 Rocket 4.1 19:50:57 10° S 19:57:12 84° W 20:03:26 10° N
SeaSat 1 3.5 19:53:24 10° NE 19:57:16 22° ESE 20:01:05 10° SSE
CZ-4B DEB 3.5 19:57:06 27° ESE 19:58:04 33° ENE 20:01:04 10° N
Cosmos-2242 3.0 19:53:59 10° S 19:58:16 62° E 20:02:37 10° NNE
Atlas Centaur 2 4.4 19:52:10 10° WSW 19:59:13 29° SSW 20:05:53 10° SE
FREGAT/IRIS 3.8 20:00:31 10° S 20:03:30 44° W 20:06:29 10° NNW
Cosmos 1452 Rocket 3.5 20:01:58 10° NNW 20:07:16 88° WSW 20:12:30 10° SSE
ATLAS CENTAUR R/B 4.1 20:07:13 10° WNW 20:09:52 17° WSW 20:12:24 10° SSW
CZ-2D R/B 3.6 20:09:16 31° ESE 20:10:36 43° ENE 20:14:18 10° N
SL-16 R/B 3.5 20:07:09 10° SW 20:12:33 43° WNW 20:17:59 10° N
Cosmos 1842 Rocket 3.8 20:09:44 10° SSE 20:13:48 42° E 20:17:55 10° NNE
Cosmos 1500 Rocket 3.9 20:10:59 10° N 20:15:13 43° ENE 20:16:35 33° ESE
Cosmos 1408 Rocket 4.1 20:10:58 10° NNW 20:15:15 58° W 20:19:28 10° S
Cosmos 1544 3.0 20:12:36 10° S 20:16:20 78° E 20:20:05 10° N
SL-8 R/B 3.7 20:13:38 10° SW 20:18:19 57° SE 20:20:05 35° E
NOSS 3-2 (A) 4.4 20:12:50 10° SW 20:18:46 50° NW 20:25:15 10° NNE
Cosmos 1953 3.0 20:18:48 10° SSW 20:22:43 56° W 20:26:39 10° N
Cosmos 468 4.5 20:18:29 10° SSW 20:23:45 85° WNW 20:29:01 10° NNE
H-2A R/B 2.7 20:25:25 45° SE 20:26:28 67° ENE 20:30:19 10° N
Cosmos 1805 4.2 20:23:17 10° SSW 20:27:05 49° W 20:30:56 10° N
Gbstr 26 Del rocket 3.7 20:24:27 10° SSW 20:28:31 39° SE 20:28:31 39° SE
Cosmos 1420 Rocket 3.9 20:23:59 10° NNW 20:29:19 81° ENE 20:32:19 27° SSE
Resurs 1-3 4.2 20:27:51 10° S 20:32:09 56° W 20:36:29 10° NNW
Abrixas 3.5 20:29:51 10° SW 20:31:53 39° SW 20:31:53 39° SW
Resurs 01 Rocket 2.9 20:29:01 10° S 20:33:14 42° W 20:37:28 10° NNW
Cosmos 1346 3.6 20:30:21 10° NNW 20:33:17 56° W 20:33:27 55° WSW
FENGYUN 3A 3.6 20:29:17 11° SSE 20:34:31 86° WSW 20:39:57 10° NNW
ATLAS CENTAUR R/B 4.3 20:28:56 10° WSW 20:34:35 64° NNW 20:53:25 10° NE
ASTEX 1 3.3 20:32:58 10° N 20:37:54 90° W 20:42:47 10° S
Cosmos 1743 Rocket 4.0 20:39:19 10° NNW 20:43:43 61° W 20:46:46 19° S
Cosmos 1269 Rocket 4.2 20:41:02 10° SSW 20:46:17 70° WNW 20:51:34 10° NNE
Cosmos 1048 Rocket 4.1 20:42:40 10° SSW 20:47:59 79° WNW 20:53:15 10° NNE
Cosmos 1470 2.9 20:49:04 61° SW 20:49:36 72° W 20:53:29 10° N
CENTAUR R/B 2.3 20:46:39 10° SSW 20:52:35 68° ESE 20:59:17 10° NE
Envisat 3.8 20:56:31 36° NE 20:56:31 36° NE 21:00:04 10° N
Cosmos 1943 3.0 20:49:57 10° SSW 20:55:32 72° ESE 21:01:10 10° NNE
Cosmos 2369 Rocket 2.1 20:50:01 10° NNW 20:55:40 66° ENE 20:56:06 63° E
Cosmos 1943 Rocket 3.3 20:54:10 10° N 20:58:11 30° NE 20:58:11 30° NE
Cosmos 2263 4.4 20:54:55 10° NNW 21:00:19 52° NE 21:00:19 52° NE
GP-B 3.2 20:57:06 10° N 21:01:03 69° NNW 21:01:03 69° NNW
Cosmos 2279 Rocket 4.4 21:07:31 45° NE 21:07:31 45° NE 21:12:05 10° NNE
BREEZE-M DEB (TANK) 3.4 20:56:52 10° WNW 21:07:11 58° N 21:07:42 54° NNE
ISS -0.4 21:05:35 10° WSW 21:06:00 13° WSW 21:06:00 13° WSW
Cosmos 1674 4.2 21:07:52 10° NNW 21:11:25 35° W 21:11:36 34° W
Cosmos 1655 Rocket 3.8 21:05:19 10° N 21:11:27 70° ENE 21:11:27 70° ENE
Cosmos 1092 Rocket 4.5 21:06:52 10° NNW 21:12:57 58° W 21:17:09 20° SSW
H-2A R/B 4.5 21:26:04 15° N 21:26:04 15° N 21:26:56 10° N
ALOS 4.4 21:21:07 11° SSW 21:24:41 24° W 21:28:27 10° NW
USA 215 4.2 21:20:58 12° NE 21:26:42 43° NNW 21:32:46 10° W
Cosmos 2026 Rocket 3.9 21:21:16 10° N 21:27:23 80° W 21:27:32 80° WSW
Cosmos 1634 Rocket 4.5 21:21:21 10° SSW 21:27:28 58° W 21:33:37 10° N
Meteor 1-11 4.4 21:24:48 10° NNW 21:29:58 70° NW 21:29:58 70° NW
ERS-1 Rocket 3.9 21:35:09 45° NNW 21:35:09 45° NNW 21:38:40 10° NNW
SeaSat 1 3.3 21:30:13 10° NNE 21:34:57 47° WNW 21:39:39 10° SW
ATLAS 5 CENTAUR R/B 4.5 21:38:05 10° WNW 21:41:23 17° NW 21:44:52 10° N
Cosmos 1943 Rocket 4.4 22:37:50 10° NW 22:39:43 20° NW 22:39:43 20° NW
CENTAUR R/B 4.3 22:38:33 10° W 22:43:53 28° NW 22:49:46 10° NNE
